CROCUBE

Last updated on Sun Dec 14 2025 00:03:50 GMT+0000 (Coordinated Universal Time)

1 62394U 24247T 25347.01278126 .00036175 00000+0 10407-2 0 9996 2 62394 44.9742 218.4059 0003410 139.2914 220.8227 15.35228665 54614
UTC large
Height (km)
Speed (km/s)
/
Latitude / Longitude
Inclination (degrees)
Orbital Period (minutes)
Azimuth
Elevation
Range (km)
Doppler Factor

Next 0 passes for location: London (51.5072 / 0.1276)

Sorry there are no passes over London.